Hourly Data Report for September 27, 2017

All times are specified in Local Standard Time (LST). Add 1 hour to adjust for Daylight Saving Time where and when it is observed.

PORT ALBERNI (AUT)
BRITISH COLUMBIA

49°18'59.700" N
124°55'36.600" W
76.20 m
1036B06
71475
WQC

Related Data

No related data is available for this station

Download Data

Hourly Data (September 2017)
Hourly Data Report for September 27, 2017
Temp Definition
°C
Dew Point Temp Definition
°C
Rel Hum Definition
%
Wind Dir Definition
10's deg

Wind Spd Definition
km/h
Visibility Definition
km
Stn Press Definition
kPa
Hmdx Definition


Wind Chill Definition


Weather Definition


TIME
00:00 9.9 9.5 97 34 1   101.26     LegendNANA
01:00 9.4 9.1 98 0 1   101.25     LegendNANA
02:00 8.8 8.5 98 31 2   101.25     LegendNANA
03:00 10.6 10.4 99 32 3   101.23     LegendNANA
04:00 10.9 10.6 99 3 1   101.20     LegendNANA
05:00 11.2 11.0 99 1 1   101.20     LegendNANA
06:00 11.6 11.5 99 1 2   101.20     LegendNANA
07:00 11.7 11.5 99 32 3   101.23     LegendNANA
08:00 12.3 12.1 99 34 2   101.24     LegendNANA
09:00 13.2 13.1 99 2 2   101.22     LegendNANA
10:00 14.0 13.4 96 2 2   101.20     LegendNANA
11:00 17.1 13.8 81 9 3   101.14     LegendNANA
12:00 20.4 13.5 65 34 2   101.07     LegendNANA
13:00 22.6 13.1 55 8 3   100.98 25   LegendNANA
14:00 24.9 13.0 48 34 4   100.88 28   LegendNANA
15:00 25.1 11.5 43 10 2   100.81 27   LegendNANA
16:00 25.9 12.8 44 24 4   100.71 29   LegendNANA
17:00 24.1 14.8 56 19 5   100.67 28   LegendNANA
18:00 18.7 15.0 79 25 3   100.68     LegendNANA
19:00 15.5 13.9 90 0 1   100.70     LegendNANA
20:00 13.7 12.9 95   0   100.72     LegendNANA
21:00 12.6 11.9 96 0 1   100.73     LegendNANA
22:00 12.3 11.8 97 32 3   100.74     LegendNANA
23:00 11.5 11.0 97 3 1   100.76     LegendNANA

Notes on Data Quality.

Legend

  • E = Estimated
  • M = Missing
  • NA = Not Available
  • ‡ = Partner data that is not subject to review by the National Climate Archives
Date modified: